Total_Precipitation_Accumulation
0.47 0.23 0.41 0.42 0.34 0.28 0.28 0.29 0.29 0.28 0.28 0.27 0.25 0.21 0.17 0.14 0.12 0.14 0.15 0.12 0.13 0.16 0.21 0.25 0.26 0.28 0.29 0.31 0.37 0.44 0.45 0.45 0.40 0.31 0.27 0.27 0.31 0.36 0.49 0.60 0.75 0.92 0.68
0.36 0.22 0.39 0.45 0.36 0.30 0.27 0.25 0.25 0.25 0.25 0.24 0.24 0.20 0.16 0.13 0.12 0.14 0.14 0.11 0.11 0.13 0.17 0.22 0.28 0.30 0.34 0.37 0.47 0.55 0.54 0.51 0.50 0.47 0.48 0.49 0.41 0.40 0.41 0.52 0.83 0.95 0.71
0.32 0.23 0.30 0.40 0.37 0.33 0.31 0.28 0.27 0.31 0.29 0.24 0.25 0.22 0.21 0.17 0.14 0.14 0.12 0.12 0.11 0.12 0.14 0.20 0.30 0.35 0.37 0.46 0.54 0.58 0.61 0.60 0.59 0.56 0.78 1.06 0.69 0.49 0.51 0.57 0.61 0.63 0.63
0.28 0.25 0.32 0.44 0.43 0.44 0.41 0.39 0.42 0.42 0.37 0.35 0.37 0.32 0.30 0.24 0.20 0.17 0.15 0.13 0.14 0.14 0.17 0.21 0.29 0.37 0.41 0.43 0.48 0.51 0.54 0.59 0.65 0.58 0.82 1.10 0.95 0.62 0.64 0.70 0.61 0.61 0.65
0.31 0.31 0.46 0.59 0.58 0.56 0.50 0.51 0.56 0.52 0.48 0.46 0.44 0.42 0.42 0.36 0.32 0.25 0.21 0.20 0.19 0.21 0.23 0.23 0.28 0.36 0.42 0.44 0.45 0.45 0.51 0.69 0.64 0.54 0.70 0.86 0.98 0.77 0.70 0.76 0.67 0.61 0.67
0.42 0.38 0.49 0.60 0.66 0.65 0.54 0.54 0.62 0.57 0.54 0.48 0.42 0.43 0.43 0.39 0.38 0.33 0.33 0.32 0.27 0.27 0.27 0.27 0.30 0.33 0.38 0.43 0.44 0.50 0.62 0.68 0.58 0.65 0.72 0.84 0.93 0.76 0.67 0.68 0.72 0.73 0.78
0.44 0.35 0.40 0.61 0.65 0.63 0.60 0.63 0.71 0.65 0.59 0.49 0.44 0.47 0.47 0.44 0.42 0.40 0.39 0.38 0.35 0.31 0.29 0.29 0.28 0.30 0.33 0.38 0.40 0.45 0.55 0.59 0.70 0.76 0.70 0.84 0.77 0.68 0.61 0.63 0.75 0.76 0.77
0.68 0.53 0.48 0.63 0.67 0.65 0.68 0.73 0.80 0.82 0.70 0.57 0.52 0.51 0.48 0.48 0.47 0.45 0.44 0.43 0.40 0.36 0.35 0.33 0.30 0.28 0.27 0.30 0.30 0.34 0.46 0.51 0.61 0.65 0.64 0.74 0.68 0.64 0.54 0.56 0.66 0.70 0.74
1.04 0.92 0.80 0.74 0.68 0.70 0.77 0.75 0.92 1.07 0.91 0.72 0.64 0.63 0.55 0.50 0.47 0.45 0.43 0.46 0.44 0.42 0.40 0.38 0.36 0.30 0.27 0.27 0.28 0.33 0.41 0.44 0.50 0.58 0.54 0.65 0.67 0.60 0.55 0.55 0.59 0.69 0.74
1.01 0.93 0.92 1.00 0.99 0.97 0.98 1.05 1.18 1.50 1.37 1.00 0.80 0.68 0.62 0.53 0.49 0.51 0.47 0.49 0.52 0.50 0.50 0.51 0.45 0.38 0.35 0.34 0.34 0.38 0.39 0.32 0.40 0.40 0.40 0.47 0.62 0.52 0.43 0.45 0.49 0.53 0.61
0.76 0.81 0.87 0.92 0.94 0.97 0.96 1.12 1.38 1.66 1.73 1.38 1.10 0.94 0.77 0.53 0.55 0.60 0.51 0.60 0.63 0.62 0.62 0.62 0.57 0.49 0.45 0.39 0.38 0.38 0.31 0.24 0.42 0.42 0.40 0.44 0.56 0.49 0.38 0.31 0.28 0.35 0.40
0.59 0.56 0.58 0.61 0.67 0.72 0.77 1.04 1.27 1.33 1.53 1.31 1.28 1.12 0.96 0.89 0.84 0.65 0.60 0.72 0.74 0.73 0.71 0.71 0.70 0.57 0.44 0.33 0.30 0.30 0.22 0.23 0.35 0.36 0.30 0.49 0.66 0.55 0.37 0.29 0.23 0.24 0.25
0.54 0.51 0.45 0.46 0.48 0.54 0.67 0.88 1.10 1.23 1.40 1.41 1.39 1.33 1.32 1.25 0.91 0.74 0.80 0.82 0.81 0.78 0.66 0.67 0.65 0.49 0.36 0.31 0.30 0.24 0.18 0.20 0.25 0.27 0.30 0.50 0.69 0.61 0.41 0.29 0.21 0.20 0.21
0.49 0.56 0.49 0.37 0.37 0.39 0.47 0.66 0.86 1.07 1.26 1.31 1.14 1.06 1.19 1.19 0.98 0.84 0.95 1.02 0.98 0.91 0.86 0.83 0.71 0.57 0.40 0.32 0.27 0.24 0.21 0.22 0.24 0.24 0.32 0.34 0.53 0.59 0.47 0.32 0.23 0.18 0.17
0.46 0.54 0.56 0.48 0.40 0.39 0.44 0.51 0.58 0.87 1.05 1.20 1.25 1.03 1.15 1.18 1.09 0.94 0.88 1.03 0.98 0.95 0.94 0.92 0.84 0.69 0.55 0.40 0.37 0.32 0.32 0.28 0.24 0.18 0.29 0.28 0.37 0.51 0.54 0.43 0.31 0.20 0.15
0.40 0.47 0.52 0.55 0.54 0.50 0.49 0.51 0.51 0.56 0.67 0.79 0.75 0.72 0.91 1.02 0.99 0.98 0.83 0.86 0.91 1.01 1.14 1.14 0.94 0.80 0.69 0.52 0.45 0.43 0.40 0.32 0.27 0.19 0.25 0.25 0.24 0.32 0.41 0.48 0.42 0.28 0.22
0.39 0.42 0.47 0.54 0.61 0.62 0.63 0.71 0.64 0.59 0.64 0.63 0.60 0.61 0.71 0.81 0.83 0.95 0.89 0.84 0.85 1.02 1.16 1.22 1.09 0.96 0.78 0.65 0.54 0.48 0.39 0.32 0.27 0.24 0.23 0.24 0.20 0.24 0.34 0.47 0.52 0.44 0.33
0.37 0.37 0.39 0.43 0.48 0.53 0.60 0.68 0.73 0.73 0.75 0.71 0.73 0.69 0.65 0.77 0.89 0.99 0.99 0.89 0.88 1.04 1.19 1.25 1.26 1.18 0.99 0.86 0.70 0.57 0.46 0.40 0.36 0.31 0.31 0.28 0.25 0.23 0.31 0.36 0.48 0.56 0.50
0.35 0.32 0.31 0.32 0.32 0.35 0.42 0.54 0.65 0.72 0.80 0.86 0.87 0.84 0.82 0.85 0.88 1.00 1.11 1.11 1.10 1.14 1.18 1.19 1.17 1.10 1.00 0.90 0.80 0.70 0.58 0.50 0.44 0.35 0.35 0.37 0.35 0.29 0.27 0.23 0.27 0.29 0.38
0.29 0.30 0.30 0.31 0.30 0.27 0.31 0.45 0.55 0.61 0.70 0.86 0.93 0.99 1.25 1.33 1.11 1.06 1.13 1.13 1.15 1.21 1.22 1.31 1.38 1.23 1.04 1.01 0.98 0.84 0.70 0.55 0.47 0.39 0.38 0.39 0.38 0.33 0.29 0.22 0.22 0.16 0.22
0.15 0.14 0.18 0.24 0.31 0.29 0.26 0.32 0.43 0.52 0.66 0.80 0.95 1.03 1.26 1.35 1.25 1.26 1.23 1.19 1.16 1.17 1.22 1.39 1.58 1.46 1.25 1.12 1.15 1.00 0.80 0.62 0.51 0.45 0.38 0.39 0.42 0.36 0.35 0.36 0.28 0.21 0.14
0.05 0.07 0.10 0.15 0.24 0.32 0.35 0.40 0.53 0.70 0.83 0.92 1.05 1.11 1.23 1.24 1.22 1.14 1.26 1.34 1.27 1.32 1.38 1.51 1.63 1.66 1.47 1.30 1.41 1.55 1.21 0.89 0.56 0.42 0.39 0.34 0.37 0.39 0.34 0.36 0.34 0.25 0.16
0.03 0.05 0.11 0.19 0.33 0.50 0.66 0.88 1.13 1.40 1.52 1.41 1.26 1.33 1.46 1.52 1.47 1.38 1.44 1.56 1.46 1.47 1.47 1.51 1.52 1.77 1.79 1.60 1.57 1.82 1.46 1.20 1.07 0.59 0.39 0.39 0.43 0.45 0.40 0.36 0.33 0.34 0.29
0.11 0.17 0.28 0.40 0.57 0.74 0.95 1.17 1.43 1.66 1.82 1.84 1.85 1.88 1.86 1.80 1.68 1.56 1.55 1.58 1.58 1.61 1.52 1.42 1.52 1.78 2.07 1.99 1.85 1.65 1.39 1.21 1.29 1.06 0.66 0.46 0.48 0.48 0.48 0.41 0.41 0.43 0.41
0.28 0.41 0.53 0.76 0.93 1.06 1.13 1.23 1.45 1.56 1.63 1.74 1.88 1.93 1.91 1.82 1.69 1.56 1.50 1.51 1.56 1.63 1.59 1.62 1.75 1.95 2.13 2.24 2.14 1.88 1.59 1.34 1.03 1.03 1.01 0.82 0.62 0.47 0.44 0.45 0.50 0.50 0.46
0.57 0.81 0.96 1.07 1.16 1.16 1.14 1.16 1.30 1.43 1.52 1.60 1.73 1.79 1.73 1.58 1.52 1.50 1.48 1.41 1.35 1.41 1.50 1.65 1.87 1.96 2.09 2.24 2.20 1.92 1.70 1.50 1.30 1.17 1.00 1.00 0.99 0.72 0.55 0.50 0.48 0.49 0.50